Location: Baia Mare
(47.6567°N, 23.5850°E)
Time: 00:40:59
(UTC+03:00)

ISS - Pass Details

Date: 27 October 2018
Orbit: 403 x 408 km, 51.6° (Epoch: 17 October)

Event Time Altitude Azimuth Distance (km) Brightness Sun altitude
Rises 07:12:57 0° 216° (SW) 2,309 -0.3 -8.8°
Reaches altitude 10° 07:15:10 10° 205° (SSW) 1,455 -1.2 -8.5°
Maximum altitude 07:18:03 29° 143° (SE) 767 -1.8 -8.0°
Drops below altitude 10° 07:20:58 10° 81° (E) 1,465 0.4 -7.5°
Sets 07:23:12 0° 70° (ENE) 2,329 1.2 -7.1°
